Погода в Люльпанах

Россия / Республика Марий Эл     56°49′36″N   47°33′49″E
темп.,
°C
ветер,
м/с
пор.,
м/с
влажн.,
%
обл.,
%
осадки,
мм/ч
давл.,
гПа
погр.,
м
27 января, ср
ср2700:00−4ю41093100 0.1 1020458
03:00−2ююв41095100 0.1 1020380
06:00−3ю51193100 0.0 1019572
09:00−1ю61391100 0.0 1017676
12:00+1ю61392100 0.0 1016793
15:00+1ю61292100 0.0 1016818
18:00+1ю61292100 0.0 1015672
21:00−1ю61396100 0.3 1014637
28 января, чт
чт2800:00−1ю61392100 0.9 1014564
03:00−1ю51296100 1.6 1013523
06:00−1ю51196100 1.3 1013488
09:00−1ю51094100 1.5 1014428
12:00−1ю41093100 0.6 1014474
15:00−1ююв4891100 0.6 1014507
18:00−4ююв4993100 0.0 1014354
21:00−6ююв4994100 0.0 1014329
29 января, пт
пт2900:00−7ююв4994100 0.0 1015348
03:00−10ююв3895100 0.0 1013266
06:00−11юв389699 0.0 1012257
09:00−10юв4996100 0.1 1011347
12:00−7ююв4893100 0.1 1010432
15:00−6юв4893100 0.1 1008507
18:00−6ююв41095100 0.3 1006513
21:00−6ююв3994100 0.6 1005377
30 января, сб
сб3000:00−6ююв4895100 0.1 1004332
03:00−6ююв3894100 0.9 1002323
06:00−6ююв41096100 0.1 1000368
09:00−4ююв4994100 0.2 999674
12:00−3ююв51095100 0.3 998649
15:00−2ююв4992100 1.1 997660
18:00−3ююз3897100 0.5 998504
21:00−6юз5138970 0.6 1001627
31 января, вс
вс3100:00−8ююз4119375 0.0 1004415
03:00−9ю4109587 0.0 1005276
06:00−7ююв4994100 0.0 1004319
09:00−3юв61495100 1.4 1000727
12:00+1ю81597100 2.8 9971158
15:00+1ю81697100 5.5 9961204
18:00+1ю71597100 1.8 9951044
21:00+1ююз81597100 2.4 9961127